Wind_Speed
26 27 28 29 29 29 29 29 28 28 27 25 24 23 23 22 20 20 20 21 22 22 22 23 23 23 23 24 25 26 27 27 27 27 28 28 29 31
25 27 27 28 28 28 28 28 27 26 25 24 23 22 22 22 20 20 20 20 20 21 21 22 23 23 24 25 25 27 28 28 27 27 27 28 27 28
23 24 25 26 26 27 27 27 26 25 23 23 22 21 21 21 20 20 21 22 21 20 21 21 22 23 24 24 25 27 28 29 29 28 28 27 27 27
22 23 23 24 24 25 26 25 25 23 23 22 22 21 21 21 21 20 21 21 21 20 20 19 19 20 21 22 22 24 25 27 28 28 28 28 28 28
21 22 22 22 23 24 25 25 24 23 23 23 22 22 20 20 20 20 20 21 21 21 21 20 19 19 19 19 19 20 22 24 26 27 28 29 29 29
21 21 22 22 22 23 24 24 23 23 23 22 22 22 21 20 19 18 19 21 22 22 23 23 22 22 21 21 21 21 22 23 24 26 27 28 29 29
21 21 21 22 22 23 23 23 23 23 23 23 22 22 20 19 18 18 19 20 23 24 24 24 24 24 24 24 25 25 25 25 25 26 27 27 28 29
22 22 22 22 22 23 23 23 23 23 23 22 22 21 20 19 18 17 17 18 20 21 23 24 25 26 26 27 28 28 28 28 28 28 28 29 29 30
23 23 22 22 21 22 22 22 23 23 22 22 22 21 21 19 18 17 17 17 17 17 18 21 23 26 26 27 28 30 31 32 32 32 32 32 32 32
24 23 22 21 21 22 21 21 22 22 22 21 21 21 20 19 19 18 18 17 17 17 17 19 20 22 24 26 28 29 31 32 34 35 36 36 36 36
23 22 22 21 21 22 21 20 19 19 19 20 20 20 19 19 19 19 18 18 18 18 19 20 21 22 23 25 27 28 30 31 33 35 36 38 39 39
22 22 21 21 21 21 20 19 18 18 17 17 17 18 18 18 18 18 18 18 19 19 20 21 22 23 24 26 27 28 29 31 32 33 35 36 38 40
21 20 20 20 20 19 19 18 17 16 15 15 15 15 15 15 15 15 16 17 18 19 20 21 22 23 25 26 28 29 30 31 32 33 34 36 37 39
17 17 17 18 18 18 17 16 16 14 13 12 12 12 11 12 12 12 13 15 16 18 19 21 22 24 25 26 28 30 31 32 34 34 35 36 37 38
14 14 15 16 16 16 16 16 15 13 12 11 10 9 8 9 10 11 12 14 15 17 18 20 22 23 25 27 29 30 32 33 34 35 36 37 38 38
10 11 11 12 14 15 15 14 14 13 11 10 9 8 7 8 8 10 11 13 15 16 18 20 22 24 26 28 30 32 33 34 35 36 37 38 38 39
5 5 5 7 9 11 12 13 12 11 9 8 6 6 6 6 8 9 11 12 14 16 18 20 22 24 26 28 30 31 33 34 35 35 36 38 39 39
10 7 4 4 6 7 8 9 10 9 7 6 4 4 4 5 7 8 9 11 13 15 17 19 21 23 25 27 29 30 32 33 34 35 36 37 38 39
18 16 14 12 11 11 11 10 9 8 7 5 3 1 1 3 4 6 8 10 12 14 16 18 20 22 24 26 28 29 29 30 31 32 33 34 35 36
23 21 20 18 17 16 15 14 12 10 8 6 5 4 3 4 5 7 8 10 12 14 16 18 20 22 24 26 27 28 28 29 29 30 31 32 33 34
26 24 23 22 20 19 17 15 14 12 10 9 7 6 6 6 7 8 9 11 13 15 17 19 21 23 25 27 28 29 29 29 29 29 29 30 31 31
25 24 23 22 21 20 18 16 15 13 11 10 9 8 7 8 8 9 10 12 13 16 18 19 21 24 26 28 29 30 30 30 30 29 28 28 27 27
21 21 20 20 19 18 16 15 14 13 12 11 10 9 9 9 10 10 12 13 15 17 19 20 22 24 26 28 30 31 31 31 30 29 28 27 26 25
Wind_Direction
255 262 268 272 275 277 279 280 281 282 282 280 278 275 274 269 267 261 254 251 248 245 243 244 246 248 252 256 257 257 257 258 258 258 258 259 258 256
260 265 269 272 275 276 277 278 279 280 279 278 276 275 272 267 264 259 254 251 248 245 244 245 248 250 253 256 258 258 257 258 258 259 260 260 260 258
264 267 269 272 273 274 275 276 276 277 275 275 275 276 271 265 263 261 256 252 249 246 246 247 251 253 255 257 259 259 259 258 258 259 260 261 260 258
265 267 269 270 272 272 272 272 273 272 271 272 273 274 270 265 262 262 258 251 247 244 244 246 251 255 256 257 259 261 260 259 258 259 260 260 259 260
266 267 269 269 269 269 269 269 269 269 268 269 270 272 271 268 264 259 256 251 246 243 242 243 249 254 256 258 261 263 263 261 259 259 260 261 261 262
268 269 270 269 268 268 268 268 268 267 266 267 268 269 269 268 268 264 259 253 249 245 244 244 249 253 257 260 262 265 265 264 262 261 260 260 261 261
268 269 269 269 268 268 268 268 267 266 265 265 265 267 268 267 269 268 264 258 253 250 247 247 250 253 259 262 264 266 267 267 265 263 262 261 261 260
268 268 268 268 268 268 268 267 266 266 264 263 263 264 266 266 269 271 271 268 260 255 254 252 253 255 259 262 263 263 264 266 266 264 263 264 263 262
269 268 268 268 267 268 268 266 265 264 262 262 261 262 264 266 268 271 269 272 269 266 263 260 260 260 261 263 264 263 264 264 265 265 265 265 264 264
269 269 268 266 265 265 266 266 265 264 263 261 261 261 263 264 266 268 270 270 271 270 271 271 269 267 268 270 268 266 266 268 269 268 267 267 265 264
268 267 265 263 260 260 261 262 263 264 263 262 261 261 262 263 265 268 270 271 273 274 273 273 274 274 273 273 272 269 269 270 271 270 269 269 267 265
265 265 264 261 258 258 258 259 261 262 263 262 262 262 262 262 263 266 270 273 276 278 277 278 278 277 276 275 274 274 273 272 272 272 271 270 269 267
267 265 263 260 257 255 254 253 255 257 259 262 262 261 261 261 263 267 272 276 279 281 282 283 283 282 280 280 279 277 276 275 275 275 275 273 271 270
269 265 259 256 253 250 249 247 248 250 252 255 258 259 259 261 266 272 277 281 283 286 287 288 288 287 286 285 285 283 282 281 281 279 277 276 275 273
274 268 261 254 248 244 242 241 241 240 241 246 250 255 258 266 272 279 284 289 291 292 293 293 293 292 291 290 288 287 286 285 285 283 281 279 277 276
287 272 262 252 243 237 233 231 231 229 232 237 246 251 258 271 281 288 294 298 299 300 300 300 299 298 297 295 294 292 291 289 288 286 284 282 279 277
328 292 264 244 229 222 219 218 218 215 217 225 232 245 258 276 291 298 302 306 308 310 311 310 308 307 304 302 300 298 296 294 292 290 287 285 282 280
46 60 77 125 162 173 181 184 188 193 198 203 215 237 264 288 303 311 316 319 321 321 321 319 318 316 315 312 309 306 303 300 298 295 292 289 287 284
60 68 80 94 112 125 130 139 147 155 161 164 172 195 292 328 337 340 340 340 339 336 334 332 330 328 325 322 320 316 313 310 307 304 300 296 292 289
65 71 78 87 95 103 109 113 116 118 119 117 111 97 64 34 16 5 359 355 352 350 347 346 343 340 337 335 331 328 324 320 317 313 308 304 300 296
66 71 76 80 86 91 95 98 99 99 99 96 89 77 60 44 31 20 13 9 5 1 358 355 353 349 346 344 340 336 332 328 325 322 318 314 309 304
65 69 73 77 80 83 85 86 87 86 83 78 71 63 53 42 33 25 19 13 9 6 4 2 360 356 354 351 348 344 340 337 334 331 327 323 320 315
63 65 68 71 73 75 77 77 77 75 72 67 61 54 46 36 29 22 17 14 11 9 7 5 5 3 1 359 357 354 351 348 346 343 340 336 332 329
Height
5822 5824 5825 5825 5825 5825 5825 5824 5825 5824 5824 5824 5825 5825 5825 5825 5825 5825 5826 5828 5830 5832 5834 5836 5838 5840 5842 5843 5845 5846 5848 5850 5851 5853 5854 5855 5857 5858
5815 5817 5817 5818 5818 5818 5818 5818 5818 5818 5818 5818 5819 5819 5820 5820 5819 5820 5821 5823 5824 5826 5828 5830 5832 5834 5835 5837 5838 5840 5841 5843 5845 5846 5847 5849 5850 5851
5809 5810 5810 5811 5811 5811 5811 5811 5812 5812 5812 5812 5813 5814 5814 5814 5814 5815 5816 5817 5819 5821 5823 5824 5826 5828 5829 5830 5831 5833 5834 5836 5837 5839 5841 5842 5843 5844
5802 5803 5804 5804 5804 5805 5805 5806 5806 5806 5807 5807 5808 5808 5809 5809 5810 5810 5811 5812 5814 5816 5817 5819 5820 5822 5823 5824 5825 5825 5827 5828 5830 5832 5834 5835 5836 5837
5796 5797 5797 5798 5798 5799 5799 5800 5800 5801 5802 5802 5803 5804 5804 5804 5804 5805 5805 5807 5808 5810 5812 5813 5815 5816 5818 5818 5819 5820 5821 5822 5824 5825 5827 5828 5829 5830
5790 5790 5791 5792 5792 5793 5793 5794 5794 5795 5796 5797 5798 5798 5799 5799 5799 5799 5800 5801 5803 5804 5806 5807 5809 5811 5812 5813 5814 5814 5815 5816 5817 5818 5819 5820 5821 5822
5784 5785 5785 5785 5786 5786 5787 5788 5788 5789 5790 5791 5792 5793 5793 5793 5794 5794 5795 5796 5797 5798 5800 5802 5803 5805 5806 5807 5808 5809 5809 5810 5811 5811 5812 5813 5813 5814
5778 5779 5779 5779 5779 5780 5781 5781 5782 5784 5785 5786 5787 5788 5788 5789 5789 5790 5790 5791 5792 5793 5794 5795 5797 5798 5799 5800 5801 5802 5803 5803 5803 5804 5805 5805 5806 5806
5771 5772 5773 5773 5773 5774 5774 5775 5776 5777 5778 5780 5781 5782 5783 5784 5785 5785 5786 5787 5787 5787 5788 5789 5790 5791 5792 5793 5793 5794 5794 5795 5795 5796 5797 5797 5797 5798
5763 5765 5766 5766 5767 5767 5768 5769 5770 5771 5772 5774 5775 5776 5778 5779 5780 5781 5781 5782 5783 5783 5784 5784 5784 5785 5785 5786 5786 5786 5786 5786 5786 5786 5787 5787 5788 5788
5756 5757 5758 5759 5760 5760 5762 5763 5764 5765 5766 5768 5769 5770 5772 5773 5775 5776 5776 5777 5778 5778 5779 5779 5779 5779 5779 5778 5778 5778 5778 5777 5777 5777 5776 5776 5777 5777
5749 5750 5751 5752 5753 5754 5756 5757 5759 5760 5761 5762 5764 5765 5766 5768 5769 5770 5771 5772 5772 5773 5773 5773 5772 5772 5772 5771 5770 5770 5769 5768 5768 5767 5766 5765 5765 5765
5742 5743 5744 5744 5746 5747 5749 5751 5753 5755 5757 5758 5759 5760 5762 5763 5764 5765 5766 5767 5767 5767 5767 5766 5766 5765 5764 5763 5762 5761 5760 5759 5758 5757 5755 5754 5753 5753
5735 5735 5736 5738 5739 5741 5743 5746 5748 5750 5753 5754 5756 5757 5758 5760 5761 5761 5762 5762 5762 5762 5761 5760 5760 5758 5757 5756 5754 5753 5751 5749 5748 5746 5745 5743 5742 5740
5728 5729 5730 5731 5733 5735 5737 5740 5743 5746 5749 5751 5753 5754 5756 5757 5758 5758 5758 5758 5758 5757 5756 5755 5754 5752 5750 5748 5746 5744 5742 5740 5738 5736 5733 5731 5729 5728
5723 5723 5724 5725 5727 5729 5732 5736 5739 5742 5745 5748 5750 5752 5753 5754 5755 5755 5755 5755 5754 5753 5752 5750 5748 5746 5743 5741 5738 5735 5733 5730 5727 5724 5722 5719 5717 5715
5719 5719 5719 5720 5722 5725 5728 5732 5736 5740 5743 5746 5748 5750 5751 5752 5753 5753 5752 5752 5751 5749 5748 5745 5743 5740 5737 5734 5730 5726 5723 5720 5716 5713 5710 5707 5704 5702
5719 5718 5718 5719 5721 5724 5727 5731 5735 5738 5742 5745 5747 5748 5750 5750 5751 5750 5750 5749 5748 5746 5744 5742 5739 5735 5731 5727 5723 5719 5714 5710 5706 5702 5698 5695 5692 5689
5723 5722 5721 5722 5723 5726 5729 5732 5736 5739 5742 5745 5746 5748 5749 5749 5749 5749 5748 5747 5746 5744 5741 5738 5735 5731 5726 5721 5716 5712 5707 5702 5697 5692 5688 5684 5680 5677
5731 5729 5729 5729 5730 5732 5734 5736 5739 5741 5743 5745 5747 5748 5749 5749 5749 5748 5747 5746 5744 5742 5739 5735 5732 5727 5722 5717 5712 5706 5700 5695 5689 5684 5679 5673 5669 5666
5740 5739 5738 5737 5738 5739 5740 5742 5743 5745 5746 5748 5749 5749 5749 5749 5749 5748 5747 5746 5744 5741 5738 5734 5730 5725 5719 5713 5707 5701 5695 5689 5683 5677 5671 5666 5660 5656
5750 5748 5747 5746 5746 5746 5747 5748 5748 5749 5750 5751 5751 5751 5751 5751 5750 5749 5748 5746 5743 5740 5737 5733 5728 5723 5717 5711 5704 5698 5691 5684 5678 5671 5665 5660 5654 5648
5758 5756 5755 5754 5754 5753 5753 5753 5754 5754 5754 5754 5754 5754 5753 5752 5751 5750 5748 5746 5743 5740 5736 5732 5727 5722 5716 5710 5703 5695 5688 5681 5674 5667 5661 5654 5649 5643